Location: Cactus School
(34.5700°N, 118.0931°W)
Time: 21:58:56
(UTC-07:00)

Transit 4A - Pass Details

Date: 22 April 2024
Orbit: 871 x 971 km, 66.8° (Epoch: 18 May)

Event Time Altitude Azimuth Distance (km) Brightness Sun altitude
Rises 11:39:12 0° 177° (S) 3,558 11.2 62.7°
Reaches altitude 10° 11:42:01 10° 167° (SSE) 2,602 10.8 63.0°
Maximum altitude 11:47:10 30° 108° (ESE) 1,563 10.0 63.7°
Drops below altitude 10° 11:52:13 10° 49° (NE) 2,558 10.3 64.3°
Sets 11:54:58 0° 39° (NE) 3,489 10.8 64.6°
